User: anonymous
Location: Caltech
(34.1382°N, 118.1253°W)
Time: 11:35:11
(UTC-07:00)
Language:

TMSAT-1 - Orbit

View from above orbital plane
View from above orbital plane
View from above satellite
View from above satellite

Ground track
Ground track

The orbit data is extracted from the following two-line orbital elements,

1 25396U 98043C   14243.82978611  .00000054  00000-0  41774-4 0  9351
2 25396 098.4462 202.6746 0003742 075.8655 339.3246 14.24189476838925
Epoch (UTC): 31 August 2014 19:54:53
Eccentricity: 0.0003742
inclination: 98.4462°
perigee height: 808 km
apogee height: 814 km
right ascension of ascending node: 202.6746°
argument of perigee: 75.8655°
revolutions per day: 14.24189476
mean anomaly at epoch: 339.3246°
orbit number at epoch: 83892

The dashed part of the orbit path shows where the satellite is in the earth's shadow,  

DLR